Weather observations for the past three days for
Los Alamitos Army Airfield
Imperial (Metric)
Date Time (pdt) Wind (mph) Vis. (mi.) Weather Sky Cond. Temperature (ºF) Relative Humidity Wind Chill (°F) Heat Index (°F) Pressure Precipitation (in)
Air Dwpt 6 hour altimeter (in) sea level (mb) 1 hr 3 hr 6 hr
Max. Min.
12 10:55 N 5 6.00 Mostly Cloudy with Haze BKN011 BKN150 72.1 64.9 72.1 64.8 78% 29.85 1011.1
12 09:55 NW 3 6.00 Overcast with Haze OVC009 69.3 64.6 85% 29.87 1011.8
12 08:55 Calm 4.00 Fog/Mist OVC005 66.9 64.2 91% 29.89 1012.5
12 07:55 Calm 2.50 Fog/Mist OVC006 66.6 64.2 92% 29.88 1012.1
12 06:55 Calm 3.00 Fog/Mist OVC005 66 63.7 92% 29.86 1011.4
12 05:55 Calm 4.00 Fog/Mist OVC005 65.3 63 92% 29.86 1011.4
12 04:55 SW 5 2.50 Fog/Mist OVC003 64.9 63.1 66 64.6 94% 29.85 1011.1
12 03:55 S 3 3.00 Fog/Mist OVC003 64.9 62.8 93% 29.85 1011.1
12 02:55 SW 3 2.75 Fog/Mist OVC003 64.9 62.8 93% 29.84 1010.8
12 01:55 Calm 7.00 Overcast OVC005 65.5 62.1 89% 29.83 1010.4
12 00:55 S 6 8.00 Overcast OVC006 65.7 62.2 89% 29.84 1010.8
11 23:55 S 5 6.00 Fog/Mist OVC006 66 63 90% 29.84 1010.8
11 22:55 S 7 6.00 Fog/Mist OVC005 65.5 62.4 78.3 65.5 90% 29.84 1010.8
11 21:55 S 6 8.00 Mostly Cloudy BKN006 66.6 63.1 89% 29.84 1010.8
11 20:55 S 7 8.00 A Few Clouds FEW007 FEW130 67.8 63.9 87% 29.82 1010.1
11 19:55 S 6 8.00 A Few Clouds FEW010 FEW130 72.3 65.1 78% 29.8 1009.4
11 18:55 S 6 7.00 A Few Clouds FEW010 FEW130 76.1 65.5 70% 78 29.78 1008.7
11 17:55 S 7 7.00 A Few Clouds FEW010 FEW130 78.1 65.7 66% 80 29.78 1008.7
11 16:55 SW 12 7.00 Partly Cloudy FEW010 FEW060 SCT130 78.1 65.3 83.5 71.2 65% 80 29.78 1008.7
11 15:55 SW 14 8.00 Partly Cloudy FEW010 FEW060 SCT130 79.3 65.7 63% 81 29.79 1009.1
11 14:55 SW 7 8.00 Partly Cloudy FEW130 SCT180 82.6 66.7 59% 85 29.81 1009.7
11 13:55 W 3 6.00 Mostly Cloudy with Haze SCT130 BKN180 82.8 66.4 58% 85 29.83 1010.4
11 12:55 SW 5 6.00 Mostly Cloudy with Haze SCT012 BKN180 75.9 65.8 71% 78 29.87 1011.8
11 11:55 S 8 6.00 Overcast with Haze OVC011 74.3 66.6 77% 29.89 1012.5
11 10:55 S 3 5.00 Overcast with Haze OVC008 71.2 65.8 71.4 65.1 83% 29.89 1012.5
11 09:55 Calm 5.00 Fog/Mist OVC007 70 65.3 85% 29.89 1012.5
11 08:55 SW 5 4.00 Fog/Mist OVC007 67.8 64 88% 29.89 1012.5
11 07:55 SW 5 4.00 Fog/Mist OVC007 67.6 63.9 88% 29.87 1011.8
11 06:55 SW 6 6.00 Fog/Mist SCT007 BKN012 OVC180 66.6 63.1 89% 29.84 1010.8
11 05:55 S 3 5.00 Fog/Mist BKN010 66.2 63.1 90% 29.82 1010.1
11 04:55 Calm 7.00 Fair CLR 65.7 63.3 67.8 64.4 92% 29.8 1009.4
11 03:55 Calm 7.00 A Few Clouds FEW220 65.7 63 91% 29.8 1009.4
11 02:55 Calm 7.00 Fair CLR 66.4 63.7 91% 29.8 1009.4
11 01:55 S 3 8.00 A Few Clouds FEW008 66.6 63.5 90% 29.82 1010.1
11 00:55 S 5 8.00 Partly Cloudy SCT007 66.7 63.3 89% 29.83 1010.4
10 23:55 S 5 8.00 Mostly Cloudy BKN007 67.5 64 89% 29.84 1010.8
10 22:55 S 6 9.00 A Few Clouds FEW007 68 64.2 77.9 67.8 88% 29.84 1010.8
10 21:55 S 6 8.00 A Few Clouds FEW010 68.2 64.2 87% 29.83 1010.4
10 20:55 S 6 7.00 A Few Clouds FEW010 FEW160 70 65.3 85% 29.81 1009.7
10 19:55 S 6 7.00 A Few Clouds FEW010 FEW160 70.7 65.3 83% 29.79 1009.1
10 18:55 S 10 7.00 A Few Clouds FEW010 FEW160 73.4 64.9 75% 29.79 1009.1
10 17:55 SW 8 7.00 A Few Clouds FEW010 FEW060 76.3 65.7 70% 78 29.79 1009.1
10 16:55 SW 8 6.00 A Few Clouds with Haze FEW012 FEW060 77.7 66.2 79.9 74.3 68% 80 29.8 1009.4
10 15:55 SW 9 6.00 A Few Clouds with Haze FEW012 FEW060 77.5 64.8 65% 79 29.82 1010.1
10 14:55 SW 10 8.00 A Few Clouds FEW011 79.2 65.8 64% 81 29.83 1010.4
10 13:55 S 8 7.00 A Few Clouds FEW011 79.5 66.2 64% 82 29.84 1010.8
10 12:55 SW 6 7.00 A Few Clouds FEW011 77.4 65.5 67% 79 29.85 1011.1
10 11:55 SW 8 5.00 Partly Cloudy with Haze SCT011 77.2 66.2 69% 79 29.86 1011.4
10 10:55 SW 8 4.00 Mostly Cloudy with Haze BKN011 75.2 65.5 76.1 66 72% 77 29.86 1011.4
10 09:55 SW 7 4.00 Mostly Cloudy with Haze BKN012 74.5 64.8 72% 29.85 1011.1
10 08:55 S 6 4.00 Partly Cloudy with Haze SCT008 72.3 65.1 78% 29.84 1010.8
10 07:55 Calm 2.50 Overcast with Haze OVC006 68.4 64 86% 29.82 1010.1
10 06:55 Calm 2.50 Fog/Mist OVC006 67.1 63.3 88% 29.81 1009.7
10 05:55 Calm 2.50 Fog/Mist OVC006 66.6 63.1 89% 29.8 1009.4
10 04:55 Calm 4.00 Fog/Mist OVC005 66.2 63.5 66.4 62.6 91% 29.78 1008.7
10 03:55 Calm 4.00 Fog/Mist OVC006 66 63.3 91% 29.78 1008.7
10 02:55 SW 3 4.00 Fog/Mist BKN004 63.9 61.2 91% 29.79 1009.1
10 01:55 Calm 7.00 Fair CLR 64.8 61.2 88% 29.79 1009.1
10 00:55 W 3 8.00 Fair CLR 64.8 60.4 86% 29.79 1009.1
09 23:55 Calm 8.00 Fair CLR 64.9 60.3 85% 29.79 1009.1
09 22:55 W 5 8.00 Fair CLR 66.4 61 76.1 66.4 83% 29.79 1009.1
09 21:55 NW 3 7.00 A Few Clouds FEW010 68.4 61.5 79% 29.79 1009.1
09 20:55 NW 5 8.00 A Few Clouds FEW010 70 62.1 76% 29.77 1008.4
09 19:55 S 5 8.00 A Few Clouds FEW010 73.2 65.1 76% 29.77 1008.4
09 18:55 S 7 7.00 A Few Clouds FEW010 75 65.3 72% 77 29.76 1008.1
09 17:55 S 8 7.00 A Few Clouds FEW010 75.2 64.8 70% 77 29.76 1008.1
09 16:55 S 9 7.00 A Few Clouds FEW010 75.9 64.9 81.3 73.6 69% 78 29.77 1008.4
09 15:55 SW 12 7.00 Fair CLR 77.7 65.8 67% 80 29.77 1008.4
09 14:55 SW 10 7.00 Fair CLR 79.2 65.8 64% 81 29.79 1009.1
09 13:55 SW 9 8.00 A Few Clouds FEW012 80.8 65.5 60% 83 29.8 1009.4
09 12:55 SW 7 7.00 A Few Clouds FEW012 80.2 65.5 61% 82 29.8 1009.4
09 11:55 S 6 7.00 A Few Clouds FEW012 78.3 65.8 66% 80 29.81 1009.7
Date Time (pdt) Wind (mph) Vis. (mi.) Weather Sky Cond. Air Dwpt Max. Min. Relative Humidity Wind Chill (°F) Heat Index (°F) altimeter (in) sea level (mb) 1 hr 3 hr 6 hr
6 hour
Temperature (ºF) Pressure Precipitation (in)